STARLINK-34728

Last updated on Thu Oct 02 2025 00:02:05 GMT+0000 (Coordinated Universal Time)

1 65455U 25194X 25274.50002315 -.01998533 00000+0 -48180-1 0 9993 2 65455 97.6031 126.8991 0001862 80.1560 28.2039 15.44608753 4984

Satellite not in orbit

STARLINK-34728